Hourly Weather Roundup
Issued by NWS Central Illinois

Home | Current Version | Previous Version | Text Only | Print | Product List | Glossary On
Versions: 1 2 3 4 5 6 7 8 9 10 11 12 13 14 15 16 17 18 19 20 21 22 23 24 25 26 27 28 29 30 31 32 33 34 35 36 37 38 39 40 41 42 43 44 45 46 47 48 49 50
000
NZUS43 KILX 240210
HWRILX

AREA WEATHER ROUNDUP
NATIONAL WEATHER SERVICE, LINCOLN IL
800 PM CST MON JAN 23 2017


CITY           SKY/WX    TMP DP  RH WIND       PRES   REMARKS
BLOOMINGTON    CLOUDY    39  35  86 NW8       29.83R WCI  33
CHAMPAIGN      CLOUDY    39  35  86 NW8       29.82R WCI  33
DANVILLE       CLOUDY    38  36  89 NW9       29.78R WCI  32
DECATUR        CLOUDY    40  36  86 N7        29.83S
EFFINGHAM      CLOUDY    41  37  83 NW7       29.84S
FLORA          CLOUDY    43  36  75 NW12      29.84S
GALESBURG      CLOUDY    34  32  92 W7        29.85F WCI  28
JACKSONVILLE   CLOUDY    37  32  81 W7        29.86S WCI  32
LACON          CLOUDY    38  36  92 NW6       29.84R WCI  33
LAWRENCEVILLE  CLOUDY    41  37  86 N17       29.82S WCI  32
LITCHFIELD     CLOUDY    38  34  86 NW8       29.85R WCI  32
$$


CITY           SKY/WX    TMP DP  RH WIND       PRES   REMARKS
LINCOLN        CLOUDY    41  37  84 W7        29.84R
MACOMB         CLOUDY    36  33  89 NW6       29.88S WCI  31
MATTOON        CLOUDY    39  36  89 N13       29.82R WCI  31
MT CARMEL AP   CLOUDY    41  36  81 NW10      29.81S WCI  35
OLNEY-NOBLE AP CLOUDY    41  37  87 NW10      29.83F WCI  35
PARIS          CLOUDY    39  35  87 N9        29.82R WCI  32
PEORIA         CLOUDY    39  35  86 NW6       29.85R WCI  35
PONTIAC        CLOUDY    40  40  99 NW5       29.84R
RANTOUL        CLOUDY    41  38  88 NW7       29.82R
SPRINGFIELD    CLOUDY    41  35  79 NW7       29.85R
TAYLORVILLE    CLOUDY    39  33  80 NW8       29.85R WCI  34
$$

...REGIONAL REPORTS...


CITY           SKY/WX    TMP DP  RH WIND       PRES   REMARKS
CHICAGO O`HARE MOCLDY    38  34  85 NW7       29.79R WCI  33
KANKAKEE       CLOUDY    40  35  82 NW7       29.82R
MOLINE         CLOUDY    37  32  82 W8        29.84F WCI  31
MOUNT STERLING CLOUDY    36  32  86 NW7       29.85F WCI  30
MOUNT VERNON   CLOUDY    41  35  79 VRB3      29.85R
PITTSFIELD     CLOUDY    37  32  84 W5        29.87F WCI  33
QUINCY         CLOUDY    35  31  85 NW5       29.85F WCI  31
ROCKFORD       CLOUDY    39  34  82 NW8       29.84R WCI  33
$$


CITY           SKY/WX    TMP DP  RH WIND       PRES   REMARKS
BURLINGTON     CLOUDY    35  31  85 NW5       29.86S WCI  31
CEDAR RAPIDS   CLOUDY    32  29  88 NW5       29.84S WCI  27
DES MOINES     CLOUDY    34  28  79 E3        29.85S
KIRKSVILLE     CLOUDY    33  29  85 CALM      29.86F
OTTUMWA        CLOUDY    33  28  81 N5        29.85R WCI  29
ST LOUIS       CLOUDY    42  33  70 N8        29.86S
$$


CITY           SKY/WX    TMP DP  RH WIND       PRES   REMARKS
TERRE HAUTE    CLOUDY    39  35  86 NW10      29.81R WCI  32
EVANSVILLE     CLOUDY    42  36  79 N7        29.83R
INDIANAPOLIS   DRIZZLE   40  38  93 NW13      29.76R FOG     WCI  32
LAFAYETTE      CLOUDY    39  37  92 NW7       29.79R WCI  34
MADISON        CLOUDY    36  33  89 VRB3      29.82R
MILWAUKEE      CLOUDY    39  35  86 NW8       29.80R WCI  33
$$





USA.gov is the U.S. government's official web portal to all federal, state and local government web resources and services.